Location: Kampernieuwstad
(52.5135°N, 5.8742°E)
Time: 10:54:52
(UTC+00:00)

Cosmos-2242 - Pass Details

Date: 15 May 2026
Orbit: 565 x 588 km, 82.5° (Epoch: 8 June)

Event Time Altitude Azimuth Distance (km) Brightness Sun altitude
Exits shadow 21:37:48 25° 152° (SSE) 1,181 3.9 -14.2°
Maximum altitude 21:39:50 44° 94° (E) 792 3.4 -14.4°
Drops below altitude 10° 21:43:46 10° 22° (NNE) 1,877 6.1 -14.6°
Sets 21:46:01 0° 16° (NNE) 2,778 7.2 -14.8°
